Wind_Speed
2 2 3 4 5 5 6 7 7 7 6 5 4 2 2 1 2 2 2 3 3 4 5 5 5 5 6 6 6 5 5 5 5 4 3 3 3 2 2 2 3 2 2
3 3 3 4 5 6 6 8 8 8 7 6 5 4 3 2 2 1 0 1 2 3 3 4 4 4 5 5 5 5 5 5 4 4 3 3 2 2 2 2 2 1 1
5 4 5 5 6 6 7 8 9 9 8 7 7 6 5 4 3 3 2 2 2 2 3 3 4 4 4 4 5 5 4 4 4 4 3 3 3 2 2 2 2 1 0
6 5 6 6 7 7 8 9 9 10 10 9 8 8 7 6 5 5 4 4 3 3 4 4 4 4 4 5 5 5 5 5 4 4 4 4 4 3 2 2 2 2 2
7 7 7 8 8 9 9 10 11 11 11 11 10 9 9 8 7 7 6 5 5 5 5 5 5 5 5 5 5 5 6 6 5 5 4 5 5 4 4 3 3 3 3
7 7 7 8 9 10 11 12 12 12 12 12 11 11 10 10 9 8 8 7 7 7 7 7 7 7 7 7 6 6 6 6 6 6 6 6 6 6 6 5 5 5 5
9 8 9 10 11 12 13 14 14 14 14 14 14 13 12 12 11 10 10 9 9 9 9 9 9 9 9 8 8 8 8 8 7 7 7 7 7 8 7 7 7 7 6
11 10 10 11 12 13 15 16 16 16 16 16 16 15 14 13 13 12 12 12 11 11 11 11 10 11 11 10 10 10 10 10 9 9 9 9 9 9 9 9 8 8 7
13 13 12 13 13 15 15 16 17 17 17 17 17 16 16 15 15 14 14 14 13 13 12 12 12 12 12 12 12 12 12 12 12 12 11 11 11 11 11 10 10 9 8
13 13 13 14 14 15 16 17 18 18 17 18 18 18 17 16 16 16 16 15 15 14 14 14 14 13 13 14 14 13 13 14 14 14 13 12 12 12 12 12 12 11 10
13 14 14 14 15 16 17 18 18 19 18 19 20 19 19 19 18 17 17 16 16 16 15 15 15 15 15 15 15 15 15 15 15 15 15 15 14 14 14 13 13 13 12
14 14 13 13 15 16 16 18 18 19 20 21 21 20 20 20 19 19 18 18 17 17 16 16 16 17 17 17 16 16 17 17 17 17 17 17 17 17 16 15 15 14 14
15 14 14 14 14 16 17 18 19 20 22 22 23 22 21 21 20 20 19 19 19 19 18 18 18 18 18 18 18 17 17 18 18 19 19 18 18 19 18 17 16 16 16
16 15 14 15 15 17 19 19 21 20 22 23 23 23 22 22 22 22 22 21 21 20 19 19 19 19 20 20 19 19 19 18 18 19 20 20 19 19 20 20 19 18 17
16 16 16 16 17 18 19 21 22 23 22 23 24 23 23 23 23 23 23 22 22 21 20 20 20 20 20 21 21 20 20 20 20 20 21 22 21 21 21 21 21 20 20
17 16 16 17 18 19 20 21 22 23 24 24 23 23 23 24 24 24 23 24 23 22 21 21 21 22 22 21 22 22 22 22 22 22 22 22 22 22 22 23 22 22 21
18 17 17 17 17 18 20 21 22 23 23 24 24 24 24 24 24 25 25 25 25 24 23 23 23 23 23 23 23 23 23 23 23 22 22 22 23 23 23 23 22 22 23
20 20 19 18 19 20 21 21 21 21 22 24 25 25 25 25 25 25 26 26 26 25 25 24 24 24 24 24 24 25 24 24 24 24 25 24 24 24 24 24 23 23 24
21 21 20 20 20 22 23 23 22 22 22 23 25 25 25 25 25 26 27 27 27 26 26 26 25 26 25 25 25 26 26 26 26 26 26 26 26 25 25 26 25 24 25
21 21 20 19 19 20 21 22 23 23 23 23 23 24 24 25 26 27 27 27 27 27 26 26 26 26 27 27 27 27 27 27 27 27 27 27 26 26 26 27 27 26 26
20 21 20 19 19 19 20 20 22 23 23 22 22 23 23 24 26 27 28 27 28 28 27 27 27 27 28 27 27 27 27 27 27 27 27 26 26 26 27 27 28 27 26
20 19 19 20 19 19 20 21 21 22 23 23 24 24 25 26 26 26 27 28 27 28 27 27 27 28 28 27 27 27 27 27 27 27 27 26 26 26 26 26 26 26 26
20 20 20 20 20 20 20 20 21 22 23 24 25 25 26 26 27 27 27 27 27 27 28 28 28 28 28 28 28 28 27 27 27 27 27 27 27 27 27 27 27 27 27
19 19 20 21 21 21 21 21 22 22 23 24 25 27 27 27 27 27 27 28 28 28 29 29 30 29 29 29 29 29 29 28 28 28 28 28 28 28 27 28 28 28 28
20 20 20 21 21 21 22 23 23 24 24 25 26 27 27 27 27 28 28 29 29 30 30 30 30 30 30 29 29 28 28 28 28 28 28 28 28 28 28 28 29 29 29
21 21 21 22 22 23 24 24 25 25 26 27 27 27 27 28 28 29 29 30 30 30 30 30 30 30 30 29 28 28 28 28 28 28 28 27 27 27 28 29 29 29 30
Wind_Direction
276 236 216 211 217 222 234 240 237 231 226 223 220 210 193 159 119 92 73 61 47 38 32 27 23 22 22 21 20 19 20 21 24 26 22 23 27 30 33 27 28 31 39
278 269 244 233 229 230 239 242 239 237 238 237 233 229 226 221 212 216 321 20 16 13 13 9 5 7 10 11 10 8 8 10 11 9 4 2 8 6 8 4 5 20 31
277 274 258 240 236 235 241 247 245 240 238 237 236 235 234 234 239 249 274 294 312 325 333 339 341 349 352 353 355 355 354 356 355 350 347 349 341 338 333 324 322 305 245
275 275 264 260 248 241 243 245 246 244 241 239 239 240 241 242 247 253 264 271 282 291 299 309 317 324 330 333 336 338 336 336 337 329 322 323 316 314 303 292 281 268 243
285 281 273 266 255 247 244 245 247 248 245 243 243 244 245 247 250 255 258 262 268 275 280 286 295 300 304 310 314 319 319 319 317 312 306 302 299 295 287 277 263 251 244
290 283 273 269 262 254 248 246 247 247 247 245 245 247 247 247 250 253 255 256 260 265 271 276 281 286 290 291 294 298 301 300 298 294 293 289 286 282 275 267 254 248 239
289 287 276 270 263 256 251 248 245 245 246 245 245 245 246 246 248 250 250 252 255 259 265 271 276 279 283 284 283 283 287 286 286 287 286 283 282 277 271 261 255 247 238
286 286 278 269 262 258 252 245 244 245 245 244 243 244 245 246 247 249 250 251 254 256 261 267 272 275 277 278 278 277 279 280 280 281 284 281 280 277 270 260 254 249 238
286 281 277 271 265 260 257 253 250 247 246 245 245 245 246 247 249 250 252 253 255 258 261 264 268 272 275 277 277 276 275 277 276 276 278 278 277 273 267 260 255 248 244
286 283 276 274 270 264 259 254 251 251 248 247 246 246 247 248 249 251 254 256 258 260 264 264 267 272 275 277 278 277 276 275 276 274 272 273 273 271 268 264 258 252 248
285 283 276 273 269 261 258 255 253 250 249 249 248 248 248 249 251 253 256 257 261 264 266 265 266 270 275 277 277 278 278 276 276 274 269 268 269 269 270 266 259 255 250
282 279 272 270 266 259 255 255 254 253 252 251 252 253 252 253 254 257 258 260 263 265 266 266 267 270 273 275 279 281 278 277 276 275 269 267 268 268 267 268 261 255 253
281 278 272 267 264 258 257 254 253 256 256 254 255 257 256 255 256 258 259 262 263 263 264 265 267 269 273 274 277 278 277 277 276 273 270 268 268 268 267 267 263 260 256
280 278 271 267 264 261 259 257 256 258 259 256 256 257 257 258 257 256 259 262 263 263 263 265 267 269 271 272 274 276 277 276 276 273 269 268 268 268 268 266 265 264 261
279 276 271 268 266 263 260 259 258 256 256 256 255 254 257 259 259 258 259 260 261 262 264 266 267 270 270 271 271 273 274 272 272 272 271 269 267 268 268 266 265 265 262
280 275 270 268 267 265 262 260 257 257 256 256 254 256 259 261 259 259 260 259 260 262 264 267 269 270 271 271 270 271 270 269 270 270 271 271 268 266 267 266 264 264 263
278 275 271 268 267 267 265 263 261 260 254 253 255 257 260 261 260 260 259 260 262 264 265 267 269 270 270 270 270 270 270 269 269 268 270 271 269 267 267 265 262 263 264
280 278 273 268 267 268 265 264 261 261 257 255 257 258 260 260 260 261 261 261 262 262 265 267 269 270 271 270 271 270 269 269 269 268 268 270 269 267 265 264 263 263 263
278 277 272 269 266 267 267 265 261 260 259 258 257 258 260 260 261 262 262 262 262 263 265 267 269 271 271 272 272 272 270 270 269 269 268 268 269 267 265 262 261 261 262
278 277 273 271 269 268 265 263 260 259 260 259 258 259 261 260 261 262 262 263 264 264 266 267 268 270 271 272 272 272 272 271 270 268 267 267 269 267 264 261 260 261 262
279 277 275 274 272 269 266 263 262 263 263 262 259 259 262 263 264 266 264 264 265 265 266 267 268 269 271 271 272 272 272 272 271 269 267 267 267 267 264 261 261 262 260
280 280 277 276 273 273 270 267 267 266 263 261 261 264 266 268 269 270 268 267 267 265 265 268 269 270 270 269 270 271 270 271 271 269 268 266 266 266 265 261 261 262 261
281 281 280 280 274 272 272 270 270 269 266 264 263 266 268 269 270 269 268 269 270 269 269 270 269 270 270 269 269 269 269 271 271 270 268 266 265 265 264 260 260 261 259
282 282 280 280 276 272 272 271 270 271 270 267 267 267 269 271 270 269 269 270 271 271 272 271 270 269 269 269 268 268 268 269 270 269 268 267 266 265 264 261 259 259 261
281 282 279 278 277 276 274 274 272 271 271 270 270 270 271 272 271 271 272 273 272 272 272 272 270 268 268 268 268 267 267 267 267 268 268 266 266 264 262 261 259 259 262
281 281 281 281 280 278 278 277 276 275 274 273 273 273 273 273 272 272 272 273 273 273 272 271 269 267 267 266 266 265 265 265 264 266 266 265 265 264 263 263 262 261 261
Height
5916 5916 5916 5916 5916 5917 5917 5917 5918 5918 5918 5918 5918 5918 5918 5918 5918 5918 5918 5918 5918 5918 5918 5917 5917 5917 5916 5916 5915 5914 5914 5913 5912 5911 5911 5910 5910 5909 5909 5908 5908 5907 5907
5915 5915 5915 5915 5915 5915 5916 5916 5917 5917 5917 5917 5917 5917 5917 5917 5917 5918 5918 5917 5917 5917 5917 5917 5917 5916 5916 5915 5915 5914 5914 5913 5912 5911 5911 5910 5910 5909 5909 5908 5908 5907 5907
5914 5913 5913 5913 5913 5914 5915 5915 5915 5915 5915 5916 5916 5916 5916 5916 5916 5917 5917 5917 5917 5917 5916 5916 5916 5916 5915 5915 5914 5914 5913 5913 5912 5911 5911 5910 5909 5909 5909 5908 5908 5907 5907
5912 5912 5912 5911 5912 5912 5913 5913 5914 5914 5914 5914 5914 5914 5915 5915 5915 5915 5915 5915 5915 5915 5915 5915 5915 5915 5914 5914 5914 5913 5912 5912 5912 5911 5910 5910 5909 5908 5908 5908 5908 5908 5907
5909 5909 5909 5909 5910 5910 5910 5911 5911 5912 5912 5912 5912 5912 5913 5913 5913 5914 5914 5914 5914 5914 5914 5914 5914 5913 5913 5913 5913 5912 5912 5911 5911 5910 5909 5909 5908 5908 5908 5907 5907 5907 5907
5907 5906 5906 5907 5907 5908 5908 5908 5909 5909 5910 5910 5910 5911 5911 5911 5912 5912 5912 5912 5912 5912 5912 5912 5912 5912 5912 5911 5911 5911 5910 5910 5909 5909 5908 5908 5907 5907 5907 5907 5906 5906 5906
5905 5904 5904 5904 5904 5905 5905 5905 5906 5906 5907 5907 5908 5908 5909 5909 5909 5910 5910 5910 5910 5910 5910 5910 5910 5910 5910 5910 5909 5909 5909 5908 5908 5907 5907 5906 5906 5906 5906 5906 5905 5905 5905
5902 5901 5901 5901 5901 5901 5902 5902 5902 5903 5903 5904 5904 5905 5905 5906 5907 5907 5907 5908 5908 5908 5908 5908 5908 5908 5908 5907 5907 5907 5907 5906 5906 5905 5905 5905 5904 5904 5904 5904 5904 5903 5903
5899 5899 5898 5898 5898 5898 5898 5899 5899 5899 5900 5900 5901 5902 5902 5903 5904 5904 5904 5905 5905 5905 5905 5905 5905 5905 5905 5905 5904 5904 5904 5904 5903 5903 5903 5903 5902 5902 5902 5902 5902 5902 5902
5896 5896 5895 5895 5895 5895 5895 5895 5895 5896 5896 5897 5897 5898 5899 5899 5900 5900 5901 5901 5902 5902 5902 5902 5902 5902 5902 5901 5901 5901 5901 5901 5900 5900 5900 5900 5900 5899 5899 5899 5899 5899 5899
5893 5893 5892 5891 5891 5891 5891 5891 5891 5892 5893 5893 5894 5894 5895 5895 5896 5896 5897 5897 5898 5899 5898 5898 5898 5898 5898 5898 5897 5897 5897 5897 5897 5897 5897 5897 5897 5897 5896 5896 5896 5896 5897
5890 5889 5888 5888 5887 5886 5887 5887 5888 5888 5889 5889 5890 5891 5891 5891 5892 5892 5893 5893 5894 5894 5894 5894 5894 5894 5894 5894 5894 5894 5894 5893 5893 5893 5893 5893 5893 5893 5893 5893 5893 5893 5893
5886 5886 5885 5885 5884 5884 5883 5884 5884 5884 5885 5885 5886 5886 5887 5887 5887 5888 5888 5889 5889 5890 5890 5890 5890 5890 5890 5890 5890 5890 5890 5890 5889 5889 5889 5889 5889 5890 5889 5889 5889 5889 5889
5883 5882 5882 5881 5880 5880 5880 5880 5880 5880 5880 5880 5881 5882 5883 5883 5883 5883 5884 5884 5885 5885 5885 5886 5886 5886 5886 5886 5886 5886 5886 5885 5885 5885 5885 5885 5885 5885 5885 5885 5885 5885 5885
5879 5879 5878 5877 5877 5876 5876 5875 5875 5876 5876 5876 5877 5877 5878 5878 5879 5879 5879 5880 5880 5881 5881 5881 5881 5881 5882 5882 5881 5881 5881 5881 5881 5880 5880 5880 5881 5881 5881 5881 5881 5881 5881
5875 5875 5874 5873 5873 5872 5872 5871 5871 5871 5871 5871 5872 5873 5873 5874 5874 5874 5875 5875 5876 5876 5876 5876 5877 5877 5877 5877 5877 5876 5876 5876 5876 5876 5876 5876 5876 5876 5876 5876 5876 5877 5877
5871 5870 5870 5869 5868 5868 5867 5866 5866 5866 5866 5866 5867 5868 5869 5869 5869 5870 5870 5870 5871 5871 5871 5871 5871 5871 5871 5871 5871 5871 5871 5871 5871 5871 5871 5870 5870 5871 5871 5871 5871 5872 5872
5867 5866 5865 5864 5864 5863 5862 5862 5862 5861 5862 5862 5862 5863 5863 5864 5864 5864 5865 5865 5865 5865 5865 5866 5866 5866 5866 5866 5866 5866 5866 5866 5865 5865 5865 5865 5865 5865 5866 5866 5866 5867 5867
5862 5861 5860 5859 5859 5858 5857 5857 5857 5857 5857 5857 5857 5858 5858 5859 5859 5859 5859 5859 5860 5860 5860 5860 5861 5860 5860 5860 5860 5860 5860 5860 5860 5860 5860 5860 5860 5860 5860 5861 5861 5861 5861
5857 5856 5855 5854 5853 5853 5852 5852 5852 5852 5852 5852 5852 5853 5853 5853 5853 5853 5853 5854 5854 5854 5854 5854 5854 5855 5854 5854 5854 5854 5854 5854 5854 5854 5854 5854 5854 5854 5854 5855 5855 5855 5855
5853 5852 5850 5849 5848 5848 5847 5847 5847 5847 5847 5847 5848 5848 5848 5848 5848 5848 5848 5848 5848 5848 5848 5848 5848 5848 5848 5848 5848 5848 5848 5848 5848 5847 5848 5848 5848 5848 5848 5848 5849 5849 5849
5847 5847 5846 5845 5844 5843 5842 5842 5842 5842 5842 5842 5842 5842 5842 5842 5842 5842 5842 5842 5842 5842 5842 5842 5842 5842 5842 5842 5842 5842 5842 5842 5841 5841 5841 5841 5842 5842 5842 5842 5843 5843 5843
5843 5842 5841 5840 5839 5838 5837 5837 5837 5837 5836 5836 5836 5836 5836 5836 5836 5835 5835 5835 5835 5835 5835 5835 5835 5835 5835 5835 5835 5835 5835 5835 5835 5835 5835 5835 5835 5836 5836 5836 5837 5837 5837
5838 5837 5836 5835 5834 5833 5832 5832 5832 5831 5830 5830 5830 5829 5829 5829 5829 5828 5828 5828 5828 5828 5828 5828 5828 5828 5828 5828 5828 5828 5829 5828 5828 5828 5828 5829 5829 5829 5829 5830 5830 5830 5831
5834 5832 5831 5830 5829 5828 5827 5827 5826 5825 5824 5823 5823 5823 5822 5822 5822 5822 5821 5821 5821 5821 5820 5820 5820 5821 5821 5821 5821 5821 5821 5821 5821 5821 5822 5822 5822 5822 5823 5823 5823 5824 5824
5828 5827 5826 5824 5823 5822 5821 5821 5819 5819 5817 5817 5816 5816 5815 5815 5814 5814 5814 5814 5813 5813 5813 5812 5812 5813 5813 5813 5813 5814 5814 5814 5814 5814 5815 5815 5815 5816 5816 5816 5816 5817 5817